Tracking 19847 objects as of 16-Sep-2019
HD Live streaming from Space Station
objects crossing your sky now

ANIK A2 (TELESAT 2)

Track ANIK A2 (TELESAT 2) now!
ANIK A2 (TELESAT 2) is classified as:


NORAD ID: 6437
Int'l Code: 1973-023A
Perigee: 35,876.6 km
Apogee: 35,981.1 km
Inclination: 12.3 °
Period: 1,443.0 minutes
Semi major axis: 42299 km
RCS: 3.1458 m2 (large)
Launch date: April 20, 1973
Source: Canada (CA)
Launch site: AIR FORCE EASTERN TEST RANGE (AFETR)
aabbcc
Your satellite tracking list
Your tracking list is empty




NASA's NSSDC Master Catalog

Two Line Element Set (TLE):
1  6437U 73023A   19258.16446995 -.00000087 +00000-0 +00000-0 0  9990
2  6437 012.3095 320.5945 0012346 005.3982 350.0467 00.99791830022525
Source of the keplerian elements: AFSPC